BEESAT-3 (39135 NORAD) Tracking and Keplerian Element Data

This shows tracking and keplerian element data for the satellite.

Feedback or suggestion? Click here.




ElementValue
Catalog39135
NameBEESAT-3
Epoch Orbit57286
Epoch Day238.84616532
Epoch Year2023
RAAN98.6785
Inclination64.8553
Eccentricity0.0017755
Argument of Perigee246.2877
Mean Anonmoly113.6403
Mean Motion15.50245348
Decay Rate0.00055174
L11 39135U 13015F 23238.84616532 .00055174 00000+0 96135-3 0 9992
L22 39135 64.8553 98.6785 0017755 246.2877 113.6403 15.50245348572861



Live tracking and technical data element details for BEESAT-3 (NORAD 39135). BEESAT-3 can be tracked NOW for your location showing map with azimuth and elevation plus other details from your city location.







IsCatalogInMostPopularTable: catalog: 39135, numindb: 696
Update: records affected: 1



GetName: 39135 BEESAT-3

Hit Count: updated at: Mon, 17 Jun 2024 23:59:10 GMT